ALEXANDRIA / NOUZHA current weather conditions

sailwx.info

Air temperature 19.0° C
Dewpoint 13.0° C

Last reported at 2014-Oct-24 23:00 UTC.
Time now 2014-Oct-25 00:50 UTC

Location: N 31°12' E 029°57'.
View on Google Maps.

See reports from other nearby stations

  
Tides and Currents Weather Stations Pressure Air Temp Water Temp Dewpoint Dewpoint Depression Visibility Wind Speed Wind Dir Waves Ship Positions
date/time (UTC)wind fromknots sea level pressurealtimeterstation pressurevisibilityair tempwater tempwave heightnotes
2014-Oct-24 23:00 19.0
2014-Oct-24 22:00 130 2 20.0
2014-Oct-24 21:00 080 2 21.0
2014-Oct-24 20:00 080 3 21.0
2014-Oct-24 19:00 22.0
2014-Oct-24 18:00 090 4 23.0
2014-Oct-24 17:00 070 2 23.0
2014-Oct-24 16:00 090 4 24.0
2014-Oct-24 15:00 020 3 29.0
2014-Oct-24 14:00 340 4 30.0
2014-Oct-24 13:00 300 4 31.0
2014-Oct-24 12:00 300 3 32.0
2014-Oct-24 11:00 220 7 32.0
2014-Oct-24 10:00 210 5 31.0
2014-Oct-24 09:00 220 6 30.0
2014-Oct-24 08:00 200 4 27.0
2014-Oct-24 07:00 190 4 24.0
2014-Oct-24 06:00 180 2 3.219.0
2014-Oct-24 05:00 3.216.0
2014-Oct-24 04:00 190 3 3.216.0
2014-Oct-24 03:00 190 2 16.0
2014-Oct-24 02:00 180 7 18.0
2014-Oct-24 01:00 190 2 18.0
2014-Oct-24 00:00 190 2 17.0
2014-Oct-23 23:00 140 2 19.0
2014-Oct-23 22:00 130 3 20.0
2014-Oct-23 21:00 120 4 20.0
2014-Oct-23 20:00 120 3 21.0
2014-Oct-23 19:00 130 3 21.0
2014-Oct-23 18:00 120 5 23.0
2014-Oct-23 17:00 120 4 23.0
2014-Oct-23 16:00 130 2 25.0
2014-Oct-23 15:00 260 2 27.0
2014-Oct-23 14:00 270 5 29.0
2014-Oct-23 13:00 270 13 29.0
2014-Oct-23 12:00 270 11 29.0
2014-Oct-23 11:00 270 13 29.0
2014-Oct-23 10:00 240 10 27.0
2014-Oct-23 09:00 230 9 27.0
2014-Oct-23 08:00 210 9 25.0
2014-Oct-23 07:00 200 7 22.0
2014-Oct-23 06:00 170 5 19.0
2014-Oct-23 05:00 15.0
2014-Oct-23 04:00 15.0
2014-Oct-23 03:00 180 1 16.0
2014-Oct-23 02:00 130 2 16.0
2014-Oct-23 01:00 140 2 16.0
2014-Oct-23 00:00 160 3 16.0